EW4214 Weather Reports


Display with metric or nautical units.
time (UTC)temp
F
wind
direction
speed
MPH
gust
MPH
rain 1hr
in
rain 24hr
in
rain mn
in
humidity
%
barometer
mb
20260901065133 85 266 3.0 6.0 0.00 0.00 0.00 73 1007.3
20260901064128 85 270 2.0 7.0 0.00 0.00 0.00 72 1007.6
20260901063635 85 289 0.0 7.0 0.00 0.00 0.00 73 1007.8
20260901062632 85 275 2.0 5.0 0.00 0.00 0.00 73 1007.9
20260901061627 85 222 2.0 7.0 0.00 0.00 0.00 73 1008.0
20260901060106 85 249 3.0 6.0 0.00 0.00 0.00 74 1008.1
20260901055100 84 231 2.0 5.0 0.00 0.00 0.00 75 1008.4
20260901054057 84 36 2.0 3.0 0.00 0.00 0.00 76 1008.6
20260901053110 84 269 0.0 3.0 0.00 0.00 0.00 76 1009.0
20260901053055 84 327 0.0 3.0 0.00 0.00 0.00 76 1008.8
20260901051047 84 263 0.0 4.0 0.00 0.00 0.00 76 1009.2
20260901050045 84 240 4.0 4.0 0.00 0.00 0.00 76 1009.3
20260901045041 84 281 1.0 3.0 0.00 0.00 0.00 77 1009.3
20260901044041 84 318 2.0 5.0 0.00 0.00 0.00 77 1009.5
20260901043037 84 230 2.0 4.0 0.00 0.00 0.00 77 1009.7
20260901042535 83 198 2.0 4.0 0.00 0.00 0.00 77 1009.7
20260901041033 83 246 2.0 5.0 0.00 0.00 0.00 78 1009.8
20260901040533 83 251 1.0 3.0 0.00 0.00 0.00 78 1009.8
20260901035033 83 288 2.0 4.0 0.00 0.00 0.00 78 1009.9
20260901034033 83 323 2.0 4.0 0.00 0.00 0.00 78 1009.9
20260901033032 83 315 2.0 4.0 0.00 0.00 0.00 79 1010.0
20260901032033 83 269 2.0 4.0 0.00 0.00 0.00 79 1010.0
20260901031038 83 169 1.0 2.0 0.00 0.00 0.00 79 1009.9
20260901030032 83 146 0.0 3.0 0.00 0.00 0.00 80 1009.9
20260901025032 83 319 0.0 3.0 0.00 0.00 0.00 80 1009.9
20260901024032 83 275 0.0 4.0 0.00 0.00 0.00 80 1010.1
20260901023032 83 278 0.0 3.0 0.00 0.00 0.00 80 1010.0
20260901022514 83 272 1.0 3.0 0.00 0.00 0.00 80 1010.0
20260901021032 83 297 0.0 2.0 0.00 0.00 0.00 80 1009.8
20260901020030 83 58 0.0 2.0 0.00 0.00 0.00 80 1009.9
20260901015034 83 284 0.0 2.0 0.00 0.00 0.00 80 1009.8
20260901014032 83 255 0.0 2.0 0.00 0.00 0.00 81 1009.7
20260901013032 83 38 0.0 2.0 0.00 0.00 0.00 81 1009.5
20260901012506 83 212 0.0 1.0 0.00 0.00 0.00 81 1009.3
20260901011946 83 269 0.0 1.0 0.00 0.00 0.00 82 1009.3
20260901010032 83 135 0.0 1.0 0.00 0.00 0.00 81 1009.2
20260901005032 83 245 0.0 0.0 0.00 0.00 0.00 81 1009.0
20260901004032 82 44 0.0 0.0 0.00 0.00 0.00 81 1008.9
20260901003031 82 44 0.0 0.0 0.00 0.00 0.00 81 1008.7
20260901002031 82 89 0.0 0.0 0.00 0.00 0.00 81 1008.6
20260901001031 82 269 0.0 0.0 0.00 0.00 0.00 81 1008.4
20260901000031 82 212 0.0 0.0 0.00 0.00 0.00 81 1008.4
20260831235031 82 224 0.0 1.0 0.00 0.00 0.00 81 1008.2
20260831234032 82 62 0.0 1.0 0.00 0.00 0.00 80 1008.1
20260831233036 82 242 0.0 0.0 0.00 0.00 0.00 80 1008.1
20260831232032 82 75 0.0 1.0 0.00 0.00 0.00 80 1008.0
20260831231031 82 66 0.0 1.0 0.00 0.00 0.00 80 1008.0
20260831230031 82 224 0.0 0.0 0.00 0.00 0.00 80 1007.9
20260831225031 82 284 0.0 1.0 0.00 0.00 0.00 80 1008.0
20260831224031 82 229 0.0 0.0 0.00 0.00 0.00 80 1008.1
20260831223031 82 55 0.0 1.0 0.00 0.00 0.00 80 1008.0
20260831222509 83 244 0.0 1.0 0.00 0.00 0.00 80 1008.1
20260831221031 83 242 0.0 1.0 0.00 0.00 0.00 79 1008.0
20260831220031 83 37 0.0 1.0 0.00 0.00 0.00 79 1008.0
20260831215954 83 315 0.0 1.0 0.00 0.00 0.00 79 1008.0
20260831214030 83 55 0.0 2.0 0.00 0.00 0.00 79 1007.9
20260831213031 83 297 0.0 1.0 0.00 0.00 0.00 79 1007.8
20260831212031 83 254 0.0 2.0 0.00 0.00 0.00 79 1007.8
20260831211508 83 319 0.0 2.0 0.00 0.00 0.00 79 1007.8
20260831210204 83 256 0.0 1.0 0.00 0.00 0.00 79 1007.7
20260831205159 83 164 0.0 1.0 0.00 0.00 0.00 79 1007.6
20260831204721 83 224 0.0 0.0 0.00 0.00 0.00 79 1007.7
20260831203718 83 217 0.0 2.0 0.00 0.00 0.00 78 1007.7
20260831203157 83 293 0.0 1.0 0.00 0.00 0.00 78 1007.7
20260831201150 83 166 1.0 1.0 0.00 0.00 0.00 78 1007.7
20260831200147 83 31 0.0 1.0 0.00 0.00 0.00 78 1007.7
20260831195143 83 179 0.0 1.0 0.00 0.00 0.00 78 1007.7
20260831194140 83 75 0.0 2.0 0.00 0.00 0.00 78 1007.7
20260831193136 83 108 1.0 2.0 0.00 0.00 0.00 78 1007.8
20260831192131 83 167 0.0 2.0 0.00 0.00 0.00 77 1008.0
20260831191133 83 151 0.0 2.0 0.00 0.00 0.00 77 1008.1
20260831190132 83 117 0.0 1.0 0.00 0.00 0.00 78 1008.2
20260831185127 83 233 0.0 2.0 0.00 0.00 0.00 78 1008.4
20260831184125 83 140 0.0 1.0 0.00 0.00 0.00 77 1008.6
20260831183126 83 235 0.0 2.0 0.00 0.00 0.00 77 1008.7
20260831182121 83 242 1.0 2.0 0.00 0.00 0.00 77 1008.7
20260831181115 83 206 0.0 1.0 0.00 0.00 0.00 77 1008.8
20260831180111 83 276 0.0 1.0 0.00 0.00 0.00 77 1008.9
20260831175109 83 259 0.0 1.0 0.00 0.00 0.00 77 1008.9
20260831174105 84 191 0.0 1.0 0.00 0.00 0.00 77 1008.9
20260831173101 83 258 0.0 2.0 0.00 0.00 0.00 77 1008.9
20260831172100 83 154 0.0 1.0 0.00 0.00 0.00 77 1008.9
20260831171055 83 135 0.0 2.0 0.00 0.00 0.00 77 1008.9
20260831170054 83 240 0.0 2.0 0.00 0.00 0.00 77 1008.9
20260831165050 84 269 0.0 1.0 0.00 0.00 0.00 77 1009.0
20260831164045 84 269 0.0 3.0 0.00 0.00 0.00 77 1009.2
20260831163040 84 261 0.0 2.0 0.00 0.00 0.00 77 1009.2
20260831162038 84 257 0.0 2.0 0.00 0.00 0.00 77 1009.3
20260831161534 84 235 0.0 2.0 0.00 0.00 0.00 77 1009.6
20260831160535 83 25 0.0 1.0 0.00 0.00 0.00 76 1009.7
20260831155031 84 240 0.0 2.0 0.00 0.00 0.00 76 1009.6
20260831154026 84 11 0.0 3.0 0.00 0.00 0.00 77 1009.6
20260831153025 84 44 0.0 5.0 0.00 0.00 0.00 77 1009.7
20260831152027 84 147 0.0 2.0 0.00 0.00 0.00 78 1009.7
20260831151028 84 32 0.0 2.0 0.00 0.00 0.00 77 1009.8
20260831150025 84 224 0.0 1.0 0.00 0.00 0.00 77 1009.8
20260831145019 84 176 0.0 2.0 0.00 0.00 0.00 77 1009.8
20260831144016 84 352 0.0 1.0 0.00 0.00 0.00 77 1009.6
20260831143513 84 230 0.0 2.0 0.00 0.00 0.00 77 1009.5
20260831142008 84 143 0.0 3.0 0.00 0.00 0.00 77 1009.5
20260831141006 84 110 0.0 1.0 0.00 0.00 0.00 77 1009.3
20260831140006 84 120 0.0 2.0 0.00 0.00 0.00 77 1009.0
20260831135006 84 0 0.0 3.0 0.00 0.00 0.00 77 1009.0
20260831134005 84 237 0.0 1.0 0.00 0.00 0.00 77 1008.8
20260831133005 84 62 0.0 4.0 0.00 0.00 0.00 77 1008.6
20260831132005 84 242 0.0 2.0 0.00 0.00 0.00 76 1008.5
20260831131005 85 234 0.0 2.0 0.00 0.00 0.00 77 1008.4
20260831130453 85 269 0.0 5.0 0.00 0.00 0.00 77 1008.3
20260831125003 85 249 3.0 5.0 0.00 0.00 0.00 77 1008.2
20260831124004 85 208 2.0 4.0 0.00 0.00 0.00 77 1008.0
20260831123004 85 250 0.0 5.0 0.00 0.00 0.00 78 1007.8
20260831122004 85 315 0.0 2.0 0.00 0.00 0.00 78 1007.4
20260831121004 85 44 0.0 2.0 0.00 0.00 0.00 78 1007.1
20260831120004 85 275 1.0 2.0 0.00 0.00 0.00 78 1006.9
20260831115917 85 102 0.0 2.0 0.00 0.00 0.00 77 1006.5
20260831114004 85 249 0.0 2.0 0.00 0.00 0.00 77 1006.4
20260831113006 85 247 2.0 4.0 0.00 0.00 0.00 77 1006.3
20260831112451 85 246 2.0 5.0 0.00 0.00 0.00 77 1006.4
20260831111004 85 220 2.0 3.0 0.00 0.00 0.00 77 1006.4
20260831110446 85 215 1.0 4.0 0.00 0.00 0.00 77 1006.5
20260831105448 85 233 0.0 4.0 0.00 0.00 0.00 77 1006.4
20260831104444 85 349 0.0 6.0 0.00 0.00 0.00 77 1006.2
20260831103004 85 204 2.0 4.0 0.00 0.00 0.00 78 1006.3
20260831102009 85 319 1.0 4.0 0.00 0.00 0.00 79 1006.2
20260831101002 86 233 2.0 3.0 0.00 0.00 0.00 79 1005.9
20260831100004 86 224 0.0 3.0 0.00 0.00 0.00 79 1005.8
20260831095006 86 32 0.0 2.0 0.00 0.00 0.00 79 1005.8
20260831094004 86 242 1.0 4.0 0.00 0.00 0.00 78 1005.9
20260831093005 86 269 0.0 3.0 0.00 0.00 0.00 77 1005.8
20260831092517 86 129 0.0 3.0 0.00 0.00 0.00 77 1005.6
20260831090938 86 261 1.0 4.0 0.00 0.00 0.00 76 1005.6
20260831090418 86 5 0.0 5.0 0.00 0.00 0.00 76 1005.6
20260831084938 86 255 2.0 4.0 0.00 0.00 0.00 76 1005.8
20260831083937 86 226 3.0 5.0 0.00 0.00 0.00 76 1005.9
20260831083414 86 220 2.0 5.0 0.00 0.00 0.00 76 1005.9
20260831081938 86 249 6.0 6.0 0.00 0.00 0.00 77 1006.1
20260831081417 86 154 0.0 3.0 0.00 0.00 0.00 77 1006.1
20260831075937 86 208 2.0 3.0 0.00 0.00 0.00 76 1006.3
20260831074937 86 241 2.0 4.0 0.00 0.00 0.00 76 1006.4
20260831073937 86 228 4.0 5.0 0.00 0.00 0.00 76 1006.5
20260831073857 86 240 1.0 6.0 0.00 0.00 0.00 75 1006.5
20260831071937 86 246 2.0 5.0 0.00 0.00 0.00 75 1006.5
20260831071417 86 324 2.0 5.0 0.00 0.00 0.00 74 1006.5
20260831065937 86 306 2.0 7.0 0.00 0.00 0.00 74 1006.5